651 Weather Reports


Display with metric or nautical units.
time (UTC)temp
F
wind
direction
speed
MPH
gust
MPH
rain 1hr
in
rain 24hr
in
rain mn
in
humidity
%
barometer
mb
20260508064607 66 0 0.0 0.0 0.00 0.00 0.00 73 1013.3
20260508063101 66 0 0.0 0.0 0.00 0.00 0.00 73 1013.3
20260508061605 65 0 0.0 0.0 0.00 0.00 0.00 73 1013.0
20260508060105 64 0 0.0 0.0 0.00 0.00 0.00 73 1012.7
20260508054601 64 0 0.0 0.0 0.00 0.00 0.00 73 1012.6
20260508053104 62 0 0.0 0.0 0.00 0.00 0.00 76 1012.6
20260508051601 61 0 0.0 0.0 0.00 0.00 0.00 79 1012.5
20260508044608 59 0 0.0 0.0 0.00 0.00 0.00 82 1012.2
20260508043112 59 0 0.0 0.0 0.00 0.00 0.00 82 1012.0
20260508041601 59 0 0.0 0.0 0.00 0.00 0.00 84 1012.0
20260508040104 59 0 0.0 0.0 0.00 0.00 0.00 85 1011.9
20260508034559 59 0 0.0 0.0 0.00 0.00 0.00 85 1011.7
20260508033059 59 0 0.0 0.0 0.00 0.00 0.00 83 1011.6
20260508031558 60 0 0.0 0.0 0.00 0.00 0.00 81 1011.4
20260508030104 60 0 0.0 0.0 0.00 0.00 0.00 77 1011.2
20260508024601 60 0 0.0 0.0 0.00 0.00 0.00 77 1011.3
20260508023101 60 0 0.0 0.0 0.00 0.00 0.00 75 1010.9
20260508021558 61 0 0.0 0.0 0.00 0.00 0.00 74 1011.1
20260508014600 61 0 0.0 0.0 0.00 0.00 0.00 74 1011.1
20260508013100 61 0 0.0 0.0 0.00 0.00 0.00 74 1011.1
20260508011609 61 0 0.0 0.0 0.00 0.00 0.00 73 1011.0
20260508010100 61 0 0.0 0.0 0.00 0.00 0.00 74 1010.9
20260508004601 61 0 0.0 0.0 0.00 0.00 0.00 76 1010.9
20260508003102 61 0 0.0 0.0 0.00 0.00 0.00 75 1011.0
20260508001600 61 0 0.0 0.0 0.00 0.00 0.00 74 1011.3
20260508000057 62 0 0.0 0.0 0.00 0.00 0.00 74 1011.4
20260507234605 62 0 0.0 0.0 0.00 0.00 0.00 73 1011.6
20260507233101 62 0 0.0 0.0 0.00 0.00 0.00 74 1011.7
20260507231606 60 0 0.0 0.0 0.00 0.00 0.00 76 1012.1
20260507230101 60 0 0.0 0.0 0.00 0.00 0.00 78 1012.4
20260507224602 60 0 0.0 0.0 0.00 0.00 0.00 79 1012.8
20260507223108 61 0 0.0 0.0 0.00 0.00 0.00 77 1012.9
20260507221559 61 0 0.0 0.0 0.00 0.00 0.00 74 1013.0
20260507220104 61 0 0.0 0.0 0.00 0.00 0.00 73 1012.2
20260507214601 61 0 0.0 0.0 0.00 0.00 0.00 74 1011.9
20260507213105 61 0 0.0 0.0 0.00 0.00 0.00 74 1011.8
20260507211559 61 0 0.0 0.0 0.00 0.00 0.00 73 1011.7
20260507210100 61 0 0.0 0.0 0.00 0.00 0.00 72 1012.0
20260507204606 61 0 0.0 0.0 0.00 0.00 0.00 73 1012.1
20260507203108 61 0 0.0 0.0 0.00 0.00 0.00 73 1012.3
20260507201605 61 0 0.0 0.0 0.00 0.00 0.00 71 1012.1
20260507194600 61 0 0.0 0.0 0.00 0.00 0.00 70 1011.9
20260507193103 61 0 0.0 0.0 0.00 0.00 0.00 71 1011.6
20260507191600 61 0 0.0 0.0 0.00 0.00 0.00 73 1011.4
20260507190100 61 0 0.0 0.0 0.00 0.00 0.00 73 1011.3
20260507184558 61 0 0.0 0.0 0.00 0.00 0.00 74 1011.1
20260507183110 61 0 0.0 0.0 0.00 0.00 0.00 73 1011.0
20260507181608 62 0 0.0 0.0 0.00 0.00 0.00 73 1011.1
20260507180115 62 0 0.0 0.0 0.00 0.00 0.00 73 1010.9
20260507174608 62 0 0.0 0.0 0.00 0.00 0.00 72 1010.6
20260507173103 63 0 0.0 0.0 0.00 0.00 0.00 71 1010.7
20260507171613 64 0 0.0 0.0 0.00 0.00 0.00 68 1010.8
20260507170100 64 0 0.0 0.0 0.00 0.00 0.00 68 1010.9
20260507164613 64 0 0.0 0.0 0.00 0.00 0.00 68 1011.0
20260507163059 64 0 0.0 0.0 0.00 0.00 0.00 69 1010.9
20260507161613 65 0 0.0 0.0 0.00 0.00 0.00 67 1010.8
20260507160101 67 0 0.0 0.0 0.00 0.00 0.00 62 1010.8
20260507154601 67 0 0.0 0.0 0.00 0.00 0.00 58 1011.1
20260507153058 68 0 0.0 0.0 0.00 0.00 0.00 59 1011.1
20260507151601 67 0 0.0 7.0 0.00 0.00 0.00 65 1010.9
20260507150106 68 0 0.0 5.0 0.00 0.00 0.00 62 1011.0
20260507144559 68 0 0.0 4.0 0.00 0.00 0.00 62 1010.8
20260507143107 68 0 1.0 8.0 0.00 0.00 0.00 62 1010.8
20260507141602 68 0 0.0 7.0 0.00 0.00 0.00 62 1010.8
20260507140100 68 0 1.0 12.0 0.00 0.00 0.00 61 1010.9
20260507134559 69 0 0.0 7.0 0.00 0.00 0.00 60 1010.9
20260507133101 68 0 0.0 6.0 0.00 0.00 0.00 60 1011.1
20260507131622 68 53 0.0 9.0 0.00 0.00 0.00 60 1011.2
20260507130104 69 0 1.0 7.0 0.00 0.00 0.00 58 1011.2
20260507124601 70 0 0.0 13.0 0.00 0.00 0.00 55 1011.5
20260507123107 71 0 0.0 11.0 0.00 0.00 0.00 54 1011.5
20260507121609 71 0 0.0 9.0 0.00 0.00 0.00 53 1011.4
20260507120058 70 113 0.0 12.0 0.00 0.00 0.00 51 1011.2
20260507114602 70 0 3.0 14.0 0.00 0.00 0.00 51 1011.1
20260507113103 70 0 1.0 10.0 0.00 0.00 0.00 51 1011.2
20260507111601 70 111 1.0 10.0 0.00 0.00 0.00 49 1011.0
20260507110120 70 121 1.0 13.0 0.00 0.00 0.00 46 1011.1
20260507104559 70 42 1.0 14.0 0.00 0.00 0.00 45 1011.5
20260507103100 70 94 1.0 13.0 0.00 0.00 0.00 42 1011.5
20260507101602 70 202 4.0 18.0 0.00 0.00 0.00 40 1011.5
20260507100100 70 188 2.0 18.0 0.00 0.00 0.00 39 1011.6
20260507094619 70 131 2.0 15.0 0.00 0.00 0.00 39 1011.8
20260507093106 69 151 4.0 18.0 0.00 0.00 0.00 39 1011.8
20260507091641 68 78 6.0 17.0 0.00 0.00 0.00 39 1012.1
20260507090107 69 184 2.0 12.0 0.00 0.00 0.00 41 1012.1
20260507084559 69 97 1.0 10.0 0.00 0.00 0.00 42 1012.0
20260507083100 68 0 0.0 4.0 0.00 0.00 0.00 45 1012.3
20260507081606 68 0 0.0 4.0 0.00 0.00 0.00 47 1012.6
20260507080059 67 75 0.0 5.0 0.00 0.00 0.00 45 1012.5
20260507074600 67 96 1.0 10.0 0.00 0.00 0.00 41 1011.8
20260507073102 66 45 3.0 17.0 0.00 0.00 0.00 41 1011.5
20260507071602 65 167 2.0 22.0 0.00 0.00 0.00 41 1011.8
20260507070107 64 121 2.0 15.0 0.00 0.00 0.00 42 1012.1